GW3137 Weather Reports


time (UTC)temp
F
wind
direction
speed
knots
gust
knots
rain 1hr
in
rain 24hr
in
rain mn
in
humidity
%
barometer
mb
20240418164202 49 288 1.7 6.1 0.00 0.00 0.00 67 1026.2
20240418163703 49 341 1.7 6.1 0.00 0.00 0.00 67 1026.3
20240418163202 49 319 1.7 6.1 0.00 0.00 0.00 68 1026.3
20240418161703 48 345 2.6 7.8 0.00 0.00 0.00 70 1026.4
20240418161202 47 290 1.7 6.1 0.00 0.00 0.00 72 1026.5
20240418160703 47 267 0.9 2.6 0.00 0.00 0.00 73 1026.5
20240418160203 47 284 0.9 4.3 0.00 0.00 0.00 73 1026.5
20240418154703 45 337 2.6 2.6 0.00 0.00 0.00 76 1026.7
20240418154202 45 342 1.7 4.3 0.00 0.00 0.00 76 1026.7
20240418151702 43 31 0.9 2.6 0.00 0.00 0.00 80 1026.9
20240418151202 43 33 0.9 2.6 0.00 0.00 0.00 80 1026.9
20240418150703 42 40 0.9 2.6 0.00 0.00 0.00 81 1026.9
20240418150202 42 297 1.7 4.3 0.00 0.00 0.00 81 1027.0
20240418144703 42 21 1.7 4.3 0.00 0.00 0.00 79 1027.0
20240418144203 42 357 0.9 2.6 0.00 0.00 0.00 77 1027.1
20240418143703 42 17 0.9 2.6 0.00 0.00 0.00 79 1027.0
20240418143203 41 40 0.0 0.0 0.00 0.00 0.00 80 1027.0
20240418141703 39 74 0.0 0.0 0.00 0.00 0.00 83 1027.0
20240418141202 39 74 0.0 0.0 0.00 0.00 0.00 83 1027.0
20240418140703 38 74 0.0 0.9 0.00 0.00 0.00 83 1027.0
20240418140202 38 74 0.0 2.6 0.00 0.00 0.00 83 1027.0
20240418134702 38 74 0.9 1.7 0.00 0.00 0.00 84 1027.0
20240418134203 37 73 0.9 1.7 0.00 0.00 0.00 84 1027.0
20240418133703 37 55 0.9 2.6 0.00 0.00 0.00 84 1027.0
20240418133202 37 61 1.7 2.6 0.00 0.00 0.00 84 1026.9
20240418131703 37 70 1.7 2.6 0.00 0.00 0.00 85 1026.9
20240418131202 37 70 0.9 2.6 0.00 0.00 0.00 85 1026.9
20240418130203 37 76 0.0 0.0 0.00 0.00 0.00 84 1026.9
20240418124703 37 76 0.0 0.0 0.00 0.00 0.00 84 1026.9
20240418124203 37 76 0.0 0.0 0.00 0.00 0.00 84 1026.9
20240418123703 37 76 0.0 0.0 0.00 0.00 0.00 83 1026.9
20240418123203 37 76 0.0 0.0 0.00 0.00 0.00 83 1026.9
20240418121703 38 76 0.0 0.0 0.00 0.00 0.00 82 1027.0
20240418121202 38 76 0.0 0.0 0.00 0.00 0.00 82 1026.9
20240418120203 38 76 0.0 0.0 0.00 0.00 0.00 81 1027.0
20240418114703 39 76 0.0 0.0 0.00 0.00 0.00 79 1027.0
20240418113703 39 76 0.0 0.0 0.00 0.00 0.00 81 1027.1
20240418113203 39 76 0.0 0.0 0.00 0.00 0.00 80 1027.1
20240418111703 39 76 0.0 0.0 0.00 0.00 0.00 80 1027.1
20240418111202 39 76 0.0 0.0 0.00 0.00 0.00 79 1027.2
20240418110703 40 76 0.0 0.0 0.00 0.00 0.00 79 1027.2
20240418104202 40 76 0.0 0.0 0.00 0.00 0.00 78 1027.3
20240418103703 40 76 0.0 0.0 0.00 0.00 0.00 79 1027.3
20240418103203 39 76 0.0 0.0 0.00 0.00 0.00 78 1027.4
20240418101702 40 76 0.0 0.0 0.00 0.00 0.00 77 1027.4
20240418101204 40 76 0.0 0.0 0.00 0.00 0.00 77 1027.5
20240418100702 40 76 0.0 0.0 0.00 0.00 0.00 76 1027.5
20240418100203 40 76 0.0 0.0 0.00 0.00 0.00 77 1027.5
20240418094703 41 76 0.0 0.0 0.00 0.00 0.00 74 1027.5
20240418094203 41 76 0.0 0.0 0.00 0.00 0.00 75 1027.4
20240418093204 41 76 0.9 1.7 0.00 0.00 0.00 75 1027.4
20240418091203 42 76 0.9 0.9 0.00 0.00 0.00 74 1027.6
20240418090703 41 76 0.0 1.7 0.00 0.00 0.00 73 1027.6
20240418090202 42 76 0.9 2.6 0.00 0.00 0.00 73 1027.6
20240418084703 43 76 0.0 0.0 0.00 0.00 0.00 71 1027.8
20240418084202 43 76 0.0 1.7 0.00 0.00 0.00 70 1027.9
20240418083703 43 76 0.9 1.7 0.00 0.00 0.00 70 1027.9
20240418081703 44 67 0.9 1.7 0.00 0.00 0.00 69 1028.1
20240418081203 44 67 0.0 1.7 0.00 0.00 0.00 68 1028.1
20240418080703 45 67 0.9 1.7 0.00 0.00 0.00 68 1028.1
20240418080203 45 55 0.0 0.0 0.00 0.00 0.00 69 1028.1
20240418074703 45 55 0.0 0.0 0.00 0.00 0.00 70 1028.3
20240418074203 45 55 0.9 1.7 0.00 0.00 0.00 69 1028.4
20240418073703 45 55 0.0 0.0 0.00 0.00 0.00 69 1028.4
20240418073203 45 55 0.0 2.6 0.00 0.00 0.00 69 1028.4
20240418071703 46 55 0.9 1.7 0.00 0.00 0.00 68 1028.4
20240418071203 46 55 0.0 0.0 0.00 0.00 0.00 67 1028.5
20240418070703 46 55 0.0 0.0 0.00 0.00 0.00 67 1028.5
20240418070203 46 55 0.0 0.0 0.00 0.00 0.00 66 1028.6
20240418064703 46 55 0.0 0.0 0.00 0.00 0.00 65 1028.6
20240418064203 47 55 0.0 0.0 0.00 0.00 0.00 64 1028.6
20240418063703 47 55 0.0 0.0 0.00 0.00 0.00 64 1028.7
20240418061703 48 55 0.0 0.0 0.00 0.00 0.00 61 1028.8
20240418060704 48 55 0.0 1.7 0.00 0.00 0.00 61 1028.8
20240418060203 48 55 0.9 1.7 0.00 0.00 0.00 61 1028.8
20240418054704 49 55 0.9 1.7 0.00 0.00 0.00 61 1028.8
20240418053203 48 38 0.0 0.0 0.00 0.00 0.00 60 1028.8
20240418051703 49 38 0.0 0.0 0.00 0.00 0.00 58 1028.7
20240418051203 49 38 0.0 0.0 0.00 0.00 0.00 58 1028.8
20240418050703 49 38 0.0 0.0 0.00 0.00 0.00 58 1028.8
20240418044703 50 34 0.0 1.7 0.00 0.00 0.00 55 1028.9
20240418044203 50 34 0.9 0.9 0.00 0.00 0.00 54 1028.9
20240418043703 51 34 0.0 0.0 0.00 0.00 0.00 53 1028.9
20240418043203 51 34 0.0 0.0 0.00 0.00 0.00 52 1028.8
20240418041703 51 33 0.0 0.0 0.00 0.00 0.00 49 1028.8
20240418041203 51 34 0.9 1.7 0.00 0.00 0.00 49 1028.8
20240418040704 51 33 0.9 1.7 0.00 0.00 0.00 49 1028.8
20240418040203 52 33 0.0 1.7 0.00 0.00 0.00 48 1028.8
20240418034203 53 0 1.7 4.3 0.00 0.00 0.00 49 1028.7
20240418033703 53 22 0.0 1.7 0.00 0.00 0.00 49 1028.7
20240418033203 54 17 0.0 2.6 0.00 0.00 0.00 50 1028.7
20240418031703 55 41 0.9 2.6 0.00 0.00 0.00 49 1028.6
20240418030703 55 25 0.9 4.3 0.00 0.00 0.00 47 1028.7
20240418030203 56 359 0.9 6.1 0.00 0.00 0.00 46 1028.6
20240418024704 57 353 1.7 2.6 0.00 0.00 0.00 43 1028.5
20240418024203 57 294 1.7 4.3 0.00 0.00 0.00 42 1028.6
20240418023203 58 134 1.7 8.7 0.00 0.00 0.00 41 1028.5
20240418021703 59 344 1.7 7.0 0.00 0.00 0.00 40 1028.6
20240418021203 59 324 1.7 4.3 0.00 0.00 0.00 40 1028.6
20240418020703 59 288 1.7 4.3 0.00 0.00 0.00 40 1028.6
20240418020203 59 310 2.6 10.4 0.00 0.00 0.00 40 1028.7
20240418014203 60 2 3.5 7.8 0.00 0.00 0.00 40 1028.8
20240418013703 60 290 1.7 8.7 0.00 0.00 0.00 39 1028.8
20240418013203 61 272 1.7 6.1 0.00 0.00 0.00 37 1028.8
20240418011704 61 283 2.6 8.7 0.00 0.00 0.00 37 1028.9
20240418011204 61 277 1.7 7.0 0.00 0.00 0.00 37 1028.9
20240418010703 62 309 1.7 7.8 0.00 0.00 0.00 37 1028.9
20240418010203 61 291 1.7 7.0 0.00 0.00 0.00 37 1029.0
20240418004703 61 281 1.7 2.6 0.00 0.00 0.00 36 1029.1
20240418004203 61 20 3.5 7.8 0.00 0.00 0.00 36 1029.2
20240418003704 63 294 0.9 6.1 0.00 0.00 0.00 37 1029.2
20240418001704 62 321 1.7 8.7 0.00 0.00 0.00 34 1029.2
20240418001204 64 337 2.6 7.8 0.00 0.00 0.00 34 1029.3
20240418000204 62 328 2.6 8.7 0.00 0.00 0.00 35 1029.4
20240417234704 65 357 1.7 10.4 0.00 0.00 0.00 32 1029.5
20240417234204 64 1 2.6 10.4 0.00 0.00 0.00 33 1029.5
20240417233704 64 359 2.6 7.0 0.00 0.00 0.00 33 1029.5
20240417233204 63 305 2.6 11.3 0.00 0.00 0.00 34 1029.6
20240417231703 61 293 4.3 8.7 0.00 0.00 0.00 33 1029.6
20240417231203 62 266 2.6 7.0 0.00 0.00 0.00 32 1029.6
20240417230703 63 11 2.6 5.2 0.00 0.00 0.00 33 1029.7
20240417230203 62 338 4.3 7.8 0.00 0.00 0.00 32 1029.8
20240417224704 61 284 4.3 7.0 0.00 0.00 0.00 32 1029.9
20240417224204 64 348 3.5 8.7 0.00 0.00 0.00 30 1030.0
20240417223703 62 347 2.6 8.7 0.00 0.00 0.00 32 1029.9
20240417223203 61 17 4.3 11.3 0.00 0.00 0.00 31 1030.0
20240417220204 59 285 5.2 10.4 0.00 0.00 0.00 37 1030.1
20240417214703 59 270 2.6 12.2 0.00 0.00 0.00 39 1030.3
20240417213704 59 280 4.3 8.7 0.00 0.00 0.00 38 1030.4
20240417213204 59 3 3.5 10.4 0.00 0.00 0.00 39 1030.4
20240417211704 60 348 3.5 8.7 0.00 0.00 0.00 40 1030.5
20240417210703 60 284 3.5 8.7 0.00 0.00 0.00 43 1030.6
20240417210204 60 280 3.5 11.3 0.00 0.01 0.00 42 1030.7
20240417204704 57 285 2.6 8.7 0.00 0.01 0.00 46 1030.7
20240417204203 57 279 5.2 10.4 0.00 0.01 0.00 44 1030.7
20240417203704 57 340 2.6 7.8 0.00 0.01 0.00 48 1030.8
20240417203203 56 254 4.3 10.4 0.00 0.01 0.00 46 1030.8
20240417201204 56 322 5.2 10.4 0.00 0.01 0.00 47 1031.0
20240417200704 57 332 4.3 7.8 0.00 0.01 0.00 49 1031.1
20240417200205 56 292 2.6 8.7 0.00 0.01 0.00 52 1031.1
20240417193703 55 297 2.6 8.7 0.00 0.01 0.00 56 1031.4
20240417193204 54 294 2.6 11.3 0.00 0.01 0.00 56 1031.4
20240417191704 54 319 3.5 7.8 0.00 0.01 0.00 57 1031.7
20240417191204 53 313 2.6 10.4 0.00 0.01 0.00 57 1031.8
20240417190704 53 283 1.7 4.3 0.00 0.01 0.00 58 1031.8
20240417184704 53 282 3.5 10.4 0.00 0.01 0.00 59 1031.9
20240417184204 52 304 4.3 7.8 0.00 0.01 0.00 60 1031.9
20240417183704 51 332 5.2 8.7 0.00 0.01 0.00 61 1031.9
20240417183204 51 302 2.6 8.7 0.00 0.01 0.00 60 1032.0
20240417181702 51 282 1.7 6.1 0.00 0.01 0.00 60 1032.1
20240417181202 51 301 2.6 6.1 0.00 0.01 0.00 59 1032.2
20240417180702 51 355 1.7 7.0 0.00 0.01 0.00 61 1032.2
20240417180203 51 292 2.6 7.0 0.00 0.01 0.00 62 1032.2
20240417174702 51 0 2.6 4.3 0.00 0.01 0.00 63 1032.1
20240417174203 50 350 1.7 4.3 0.00 0.01 0.00 65 1032.1
20240417173703 49 236 1.7 4.3 0.00 0.01 0.00 65 1032.1
20240417173202 49 271 3.5 7.0 0.00 0.01 0.00 65 1032.2
20240417171203 48 347 0.9 4.3 0.00 0.01 0.00 67 1032.2
20240417170702 48 298 1.7 2.6 0.00 0.01 0.00 67 1032.1
20240417170202 48 297 0.9 2.6 0.00 0.01 0.00 68 1032.1
20240417164702 46 8 0.9 2.6 0.00 0.01 0.00 70 1032.1